Content
SEND FEEDBACK

Daily
Averages
Monthly
Summary
Indonesia

HASANUDIN, INDONESIA


Home > Asia > Indonesia
Elevation: 46 feet     Latitude: 05 04S     Longitude: 119 33E

WEATHER
 
SELECT A DAY
Number of Records: 195,828;   Date Range: 9/17/97 - 7/20/14
 
SHARE

PRINT THIS DATA

[ ← Previous Day ]
WEATHER ALMANAC - APRIL 8, 2013
[ Next Day → ]
[ °C ]   °F
Weather ElementAverageHighLow
Temperature76.9 °F78.8 °F (1:00 am)75 °F (2:00 pm)
Dewpoint76.9 °F78.8 °F (1:00 am)75 °F (2:00 pm)
Humidity100 %100 % (12:30 am)99 % (2:00 am)
Barometer29.80 in29.86 in (9:00 pm)29.74 in (2:51 am)
Wind Speed5 mph11.5 mph (1:22 pm)
Weather ElementAverage
Visibility3.4 mi
Wind DirectionSE (131 °)

Weather ElementTotal
Precipitation---
Cooling Degree Days11.9 (Base 65)
Growing Degree Days26.9 (Base 50)
Averaged from 68 records on April 8, 2013
WEATHER CONDITIONS BREAKOUT
WIND DIRECTION BREAKOUT
WEATHER BY HOUR - APRIL 8, 2013
[ °C ]   °F
Local TimeTemperatureDewpointHumidityBarometerVisibilityWind DirectionWind SpeedGust SpeedPrecipitationEventsConditions
12:30 AM77.0 °F77.0 °F100 %29.80 in4.3 miNE (40°)3.5 mphPartly Cloudy
1:00 AM78.8 °F78.8 °F100 %29.80 in4.3 miENE (70°)3.5 mphPartly Cloudy
1:30 AM77.0 °F77.0 °F100 %29.77 in4.3 miVariable2.3 mphPartly Cloudy
2:00 AM78.0 °F78.0 °F99 %29.77 in4.0 miENE (60°)4.6 mphScattered Clouds
2:00 AM77.0 °F77.0 °F100 %29.77 in4.3 miENE (60°)4.6 mphPartly Cloudy
2:30 AM77.0 °F77.0 °F100 %29.77 in4.3 miNNW (330°)9.2 mphPartly Cloudy
2:51 AM77.0 °F77.0 °F100 %29.74 in3.1 miNNW (340°)4.6 mphPartly Cloudy
2:52 AM77.0 °F77.0 °F100 %29.74 in3.1 miNNW (340°)4.6 mphRainLight Rain
3:00 AM77.0 °F77.0 °F100 %29.74 in3.1 miNNW (340°)4.6 mphRainLight Rain
3:30 AM77.0 °F77.0 °F100 %29.74 in3.1 miNNW (340°)4.6 mphRainLight Rain
4:00 AM77.0 °F77.0 °F100 %29.74 in4.3 miNorth (350°)9.2 mphPartly Cloudy
4:15 AM77.0 °F77.0 °F100 %29.74 in3.1 miNorth (10°)6.9 mphRainLight Rain
4:30 AM77.0 °F77.0 °F100 %29.74 in3.1 miNorth (10°)9.2 mphRainLight Rain
5:00 AM76.0 °F76.0 °F100 %29.75 in4.0 miNNE (20°)6.9 mphRainLight Rain
5:00 AM77.0 °F77.0 °F100 %29.74 in4.3 miNNE (20°)6.9 mphPartly Cloudy
5:30 AM77.0 °F77.0 °F100 %29.74 in4.3 miNE (50°)6.9 mphPartly Cloudy
6:00 AM77.0 °F77.0 °F100 %29.77 in4.3 miENE (60°)5.8 mphPartly Cloudy
6:29 AM77.0 °F77.0 °F100 %29.77 in4.3 miEast (90°)3.5 mphRainLight Rain
6:30 AM77.0 °F77.0 °F100 %29.77 in4.3 miEast (90°)3.5 mphRainLight Rain
7:00 AM77.0 °F77.0 °F100 %29.80 in5.6 miEast (100°)4.6 mphPartly Cloudy
7:07 AM77.0 °F77.0 °F100 %29.80 in4.3 miEast (100°)3.5 mphRainLight Rain
7:30 AM77.0 °F77.0 °F100 %29.80 in4.3 miWest (260°)3.5 mphRainLight Rain
7:51 AM77.0 °F77.0 °F100 %29.80 in1.9 miSSW (200°)3.5 mphRainRain
8:00 AM77.0 °F77.0 °F100 %29.82 in2.0 miSouth (190°)4.6 mphRainRain
8:00 AM77.0 °F77.0 °F100 %29.80 in1.9 miSSW (200°)4.6 mphRainRain
8:09 AM77.0 °F77.0 °F100 %29.83 in0.6 miSW (230°)5.8 mphRainHeavy Rain
8:30 AM77.0 °F77.0 °F100 %29.83 in0.6 miEast (80°)3.5 mphRainHeavy Rain
9:00 AM77.0 °F77.0 °F100 %29.83 in2.5 miSE (130°)5.8 mphRainRain
9:28 AM77.0 °F77.0 °F100 %29.83 in4.3 miESE (120°)3.5 mphRainLight Rain
9:30 AM77.0 °F77.0 °F100 %29.83 in4.3 miSE (130°)4.6 mphPartly Cloudy
10:00 AM78.8 °F78.8 °F100 %29.83 in5.0 miESE (110°)4.6 mphPartly Cloudy
10:04 AM78.8 °F78.8 °F100 %29.83 in4.3 miESE (110°)5.8 mphRainLight Rain
10:30 AM78.8 °F78.8 °F100 %29.83 in1.9 miEast (80°)3.5 mphRainRain
11:00 AM78.8 °F78.8 °F100 %29.83 in1.9 miEast (100°)4.6 mphRainRain
11:00 AM78.0 °F78.0 °F100 %29.84 in2.0 miEast (100°)4.6 mphRainRain
11:16 AM77.0 °F77.0 °F100 %29.83 in0.6 miEast (100°)5.8 mphRainHeavy Rain
11:30 AM77.0 °F77.0 °F100 %29.83 in0.6 miEast (80°)6.9 mphRainHeavy Rain
12:00 PM77.0 °F77.0 °F100 %29.80 in2.5 miESE (120°)8.1 mphRainLight Rain
12:30 PM77.0 °F77.0 °F100 %29.80 in3.7 miSE (130°)3.5 mphRainLight Rain
1:00 PM77.0 °F77.0 °F100 %29.80 in3.7 miESE (120°)4.6 mphRainLight Rain
1:22 PM77.0 °F77.0 °F100 %29.80 in2.5 miSW (230°)11.5 mphRainRain
1:30 PM75.2 °F75.2 °F100 %29.80 in0.9 miSW (220°)10.4 mphRainHeavy Rain
2:00 PM75.2 °F75.2 °F100 %29.77 in3.1 miSouth (180°)8.1 mphRainLight Rain
2:00 PM75.0 °F75.0 °F100 %29.79 in3.0 miSouth (180°)8.1 mphRainLight Rain
2:25 PM75.2 °F75.2 °F100 %29.77 in1.9 miSSW (210°)5.8 mphRainRain
2:30 PM75.2 °F75.2 °F100 %29.77 in1.9 miSSW (210°)4.6 mphRainRain
3:00 PM75.2 °F75.2 °F100 %29.77 in3.7 miSouth (180°)4.6 mphRainLight Rain
3:30 PM75.2 °F75.2 °F100 %29.77 in3.7 miSSE (160°)6.9 mphRainLight Rain
3:40 PM75.2 °F75.2 °F100 %29.77 in1.9 miSouth (170°)3.5 mphRainRain
4:00 PM77.0 °F77.0 °F100 %29.77 in1.9 miSouth (170°)5.8 mphRainRain
4:30 PM77.0 °F77.0 °F100 %29.77 in1.9 miSouth (170°)4.6 mphRainRain
5:00 PM77.0 °F77.0 °F100 %29.80 in3.7 miSouth (170°)4.6 mphRainLight Rain
5:00 PM76.0 °F76.0 °F100 %29.80 in4.0 miSouth (170°)4.6 mphRainLight Rain
5:30 PM77.0 °F77.0 °F100 %29.80 in3.7 miSouth (170°)3.5 mphRainLight Rain
6:00 PM77.0 °F77.0 °F100 %29.80 in4.3 miESE (110°)3.5 mphRainLight Rain
6:30 PM77.0 °F77.0 °F100 %29.80 in4.3 miVariable2.3 mphRainLight Rain
7:00 PM77.0 °F77.0 °F100 %29.83 in4.3 miEast (90°)4.6 mphScattered Clouds
7:30 PM77.0 °F77.0 °F100 %29.83 in4.3 miEast (90°)4.6 mphScattered Clouds
8:00 PM76.0 °F76.0 °F100 %29.85 in4.0 miENE (70°)4.6 mphRainLight Rain
8:00 PM77.0 °F77.0 °F100 %29.83 in4.3 miENE (70°)4.6 mphScattered Clouds
8:30 PM77.0 °F77.0 °F100 %29.83 in4.3 miEast (80°)4.6 mphPartly Cloudy
9:00 PM77.0 °F77.0 °F100 %29.86 in4.3 miNE (50°)4.6 mphPartly Cloudy
9:30 PM77.0 °F77.0 °F100 %29.86 in4.3 miVariable2.3 mphPartly Cloudy
10:00 PM77.0 °F77.0 °F100 %29.86 in4.3 miNE (40°)2.3 mphRainLight Rain
10:30 PM77.0 °F77.0 °F100 %29.86 in4.3 miEast (80°)3.5 mphRainLight Rain
11:00 PM76.0 °F76.0 °F100 %29.85 in4.0 miEast (80°)3.5 mphRainLight Rain
11:00 PM77.0 °F77.0 °F100 %29.83 in4.3 miEast (80°)3.5 mphPartly Cloudy
11:30 PM77.0 °F77.0 °F100 %29.83 in4.3 miENE (70°)3.5 mph
Hourly data recorded from WAAA, located miles away from Hasanudin, Indonesia







STORIES FROM OUR PARTNERS